| time (UTC) | temp C | wind direction | speed KPH | gust KPH | rain 1hr cm | rain 24hr cm | rain mn cm | humidity % | barometer mb |
| 20260503230026 | 12 | 293 | 1.6 | 1.6 | 0.00 | 0.00 | 0.00 | 83 | 1018.6 |
| 20260503225018 | 12 | 327 | 1.6 | 3.2 | 0.00 | 0.00 | 0.00 | 85 | 1018.5 |
| 20260503224046 | 12 | 319 | 0.0 | 1.6 | 0.00 | 0.00 | 0.00 | 85 | 1018.5 |
| 20260503223018 | 12 | 320 | 1.6 | 3.2 | 0.00 | 0.00 | 0.00 | 84 | 1018.6 |
| 20260503222045 | 12 | 318 | 3.2 | 3.2 | 0.00 | 0.00 | 0.00 | 84 | 1018.6 |
| 20260503221018 | 12 | 322 | 1.6 | 3.2 | 0.00 | 0.00 | 0.00 | 84 | 1018.6 |
| 20260503220026 | 13 | 318 | 4.8 | 4.8 | 0.00 | 0.00 | 0.00 | 83 | 1018.5 |
| 20260503215019 | 13 | 325 | 1.6 | 3.2 | 0.00 | 0.00 | 0.00 | 83 | 1018.4 |
| 20260503214026 | 13 | 312 | 1.6 | 3.2 | 0.00 | 0.00 | 0.00 | 82 | 1018.3 |
| 20260503213018 | 13 | 284 | 1.6 | 3.2 | 0.00 | 0.00 | 0.00 | 80 | 1018.3 |
| 20260503212047 | 13 | 0.0 | 1.6 | 0.00 | 0.00 | 0.00 | 78 | 1018.3 | |
| 20260503211020 | 14 | 251 | 4.8 | 4.8 | 0.00 | 0.00 | 0.00 | 78 | 1018.3 |
| 20260503210026 | 14 | 263 | 4.8 | 6.4 | 0.00 | 0.00 | 0.00 | 76 | 1018.2 |
| 20260503205019 | 15 | 271 | 6.4 | 9.7 | 0.00 | 0.00 | 0.00 | 74 | 1018.2 |
| 20260503204026 | 14 | 279 | 4.8 | 4.8 | 0.00 | 0.00 | 0.00 | 72 | 1018.1 |
| 20260503203019 | 13 | 290 | 4.8 | 4.8 | 0.00 | 0.00 | 0.00 | 69 | 1018.0 |
| 20260503202026 | 13 | 297 | 3.2 | 4.8 | 0.00 | 0.00 | 0.00 | 65 | 1018.0 |
| 20260503201019 | 14 | 287 | 3.2 | 3.2 | 0.00 | 0.00 | 0.00 | 65 | 1018.0 |
| 20260503200026 | 15 | 288 | 1.6 | 3.2 | 0.00 | 0.00 | 0.00 | 61 | 1018.1 |
| 20260503195019 | 16 | 255 | 3.2 | 4.8 | 0.00 | 0.00 | 0.00 | 58 | 1018.1 |
| 20260503194027 | 16 | 219 | 4.8 | 4.8 | 0.00 | 0.00 | 0.00 | 57 | 1017.9 |
| 20260503193019 | 15 | 276 | 1.6 | 3.2 | 0.00 | 0.00 | 0.00 | 59 | 1017.8 |
| 20260503192026 | 15 | 269 | 8.0 | 14.5 | 0.00 | 0.00 | 0.00 | 60 | 1018.0 |
| 20260503191039 | 15 | 239 | 4.8 | 12.9 | 0.00 | 0.00 | 0.00 | 59 | 1017.6 |
| 20260503190026 | 15 | 181 | 4.8 | 11.3 | 0.00 | 0.00 | 0.00 | 60 | 1017.5 |
| 20260503185018 | 17 | 116 | 4.8 | 9.7 | 0.00 | 0.00 | 0.00 | 55 | 1017.3 |
| 20260503184026 | 17 | 64 | 6.4 | 11.3 | 0.00 | 0.00 | 0.00 | 53 | 1017.3 |
| 20260503183020 | 18 | 69 | 4.8 | 9.7 | 0.00 | 0.00 | 0.00 | 52 | 1017.3 |
| 20260503182026 | 18 | 76 | 3.2 | 9.7 | 0.00 | 0.00 | 0.00 | 49 | 1017.1 |
| 20260503181017 | 19 | 52 | 6.4 | 11.3 | 0.00 | 0.00 | 0.00 | 48 | 1017.1 |
| 20260503180025 | 19 | 48 | 4.8 | 9.7 | 0.00 | 0.00 | 0.00 | 47 | 1017.1 |
| 20260503175016 | 19 | 36 | 4.8 | 11.3 | 0.00 | 0.00 | 0.00 | 46 | 1017.1 |
| 20260503174105 | 20 | 22 | 4.8 | 6.4 | 0.00 | 0.00 | 0.00 | 45 | 1017.0 |
| 20260503173017 | 20 | 13 | 4.8 | 6.4 | 0.00 | 0.00 | 0.00 | 44 | 1017.0 |
| 20260503172024 | 20 | 14 | 6.4 | 11.3 | 0.00 | 0.00 | 0.00 | 44 | 1016.9 |
| 20260503171017 | 20 | 21 | 6.4 | 12.9 | 0.00 | 0.00 | 0.00 | 42 | 1016.9 |
| 20260503131016 | 21 | 25 | 17.7 | 30.6 | 0.00 | 0.00 | 0.00 | 47 | 1017.2 |
| 20260503081017 | 21 | 359 | 14.5 | 30.6 | 0.00 | 0.00 | 0.00 | 36 | 1017.4 |
| 20260503072044 | 20 | 336 | 17.7 | 29.0 | 0.00 | 0.00 | 0.00 | 42 | 1017.3 |
| 20260503071017 | 19 | 329 | 20.9 | 35.4 | 0.00 | 0.00 | 0.00 | 43 | 1017.3 |
| 20260503055017 | 16 | 316 | 16.1 | 24.1 | 0.00 | 0.00 | 0.00 | 51 | 1017.3 |
| 20260503054025 | 16 | 319 | 14.5 | 24.1 | 0.00 | 0.00 | 0.00 | 52 | 1017.3 |
| 20260503053016 | 15 | 318 | 16.1 | 24.1 | 0.00 | 0.00 | 0.00 | 53 | 1017.3 |
| 20260503052024 | 13 | 302 | 4.8 | 12.9 | 0.00 | 0.00 | 0.00 | 58 | 1017.4 |
| 20260503051016 | 12 | 289 | 4.8 | 6.4 | 0.00 | 0.00 | 0.00 | 60 | 1017.4 |
| 20260503050044 | 12 | 292 | 3.2 | 6.4 | 0.00 | 0.00 | 0.00 | 62 | 1017.3 |
| 20260503045017 | 11 | 293 | 4.8 | 6.4 | 0.00 | 0.00 | 0.00 | 63 | 1017.2 |
| 20260503044024 | 11 | 301 | 6.4 | 9.7 | 0.00 | 0.00 | 0.00 | 64 | 1017.2 |
| 20260503043037 | 10 | 291 | 8.0 | 11.3 | 0.00 | 0.00 | 0.00 | 65 | 1017.2 |
| 20260503042024 | 10 | 301 | 8.0 | 11.3 | 0.00 | 0.00 | 0.00 | 67 | 1017.1 |
| 20260503041017 | 9 | 299 | 8.0 | 9.7 | 0.00 | 0.00 | 0.00 | 68 | 1017.2 |
| 20260503040025 | 9 | 295 | 6.4 | 9.7 | 0.00 | 0.00 | 0.00 | 68 | 1017.1 |
| 20260503035037 | 9 | 295 | 6.4 | 9.7 | 0.00 | 0.00 | 0.00 | 68 | 1017.2 |
| 20260503034024 | 8 | 292 | 6.4 | 9.7 | 0.00 | 0.00 | 0.00 | 68 | 1017.2 |
| 20260503033037 | 8 | 291 | 6.4 | 9.7 | 0.00 | 0.00 | 0.00 | 68 | 1017.3 |
| 20260503032024 | 9 | 295 | 8.0 | 11.3 | 0.00 | 0.00 | 0.00 | 67 | 1017.3 |
| 20260503031019 | 9 | 299 | 6.4 | 9.7 | 0.00 | 0.00 | 0.00 | 66 | 1017.4 |
| 20260503030026 | 9 | 296 | 6.4 | 9.7 | 0.00 | 0.00 | 0.00 | 65 | 1017.4 |
| 20260503025018 | 10 | 297 | 6.4 | 6.4 | 0.00 | 0.00 | 0.00 | 64 | 1017.5 |
| 20260503024026 | 10 | 297 | 6.4 | 9.7 | 0.00 | 0.00 | 0.00 | 63 | 1017.6 |
| 20260503023018 | 10 | 293 | 6.4 | 11.3 | 0.00 | 0.00 | 0.00 | 63 | 1017.6 |
| 20260503022026 | 10 | 292 | 6.4 | 11.3 | 0.00 | 0.00 | 0.00 | 63 | 1017.6 |
| 20260503021018 | 10 | 291 | 6.4 | 11.3 | 0.00 | 0.00 | 0.00 | 63 | 1017.6 |
| 20260503020026 | 10 | 292 | 8.0 | 12.9 | 0.00 | 0.00 | 0.00 | 62 | 1017.8 |
| 20260503015018 | 11 | 288 | 8.0 | 14.5 | 0.00 | 0.00 | 0.00 | 62 | 1017.8 |
| 20260503014026 | 11 | 290 | 8.0 | 14.5 | 0.00 | 0.00 | 0.00 | 62 | 1017.8 |
| 20260503013019 | 11 | 292 | 9.7 | 12.9 | 0.00 | 0.00 | 0.00 | 61 | 1017.9 |
| 20260503012026 | 11 | 278 | 8.0 | 14.5 | 0.00 | 0.00 | 0.00 | 62 | 1017.9 |
| 20260503011018 | 11 | 287 | 8.0 | 12.9 | 0.00 | 0.00 | 0.00 | 63 | 1018.1 |
| 20260503010026 | 11 | 295 | 9.7 | 16.1 | 0.00 | 0.00 | 0.00 | 64 | 1018.2 |
| 20260503005018 | 11 | 288 | 9.7 | 14.5 | 0.00 | 0.00 | 0.00 | 66 | 1018.3 |
| 20260503004026 | 11 | 282 | 8.0 | 11.3 | 0.00 | 0.00 | 0.00 | 66 | 1018.4 |
| 20260503003019 | 11 | 286 | 8.0 | 11.3 | 0.00 | 0.00 | 0.00 | 65 | 1018.6 |
| 20260503002026 | 11 | 285 | 6.4 | 12.9 | 0.00 | 0.00 | 0.00 | 64 | 1018.7 |
| 20260503001019 | 11 | 283 | 8.0 | 12.9 | 0.00 | 0.00 | 0.00 | 63 | 1018.7 |
| 20260503000026 | 12 | 286 | 8.0 | 14.5 | 0.00 | 0.00 | 0.00 | 62 | 1018.8 |
| 20260502235038 | 12 | 289 | 9.7 | 16.1 | 0.00 | 0.00 | 0.00 | 61 | 1018.8 |
| 20260502234026 | 11 | 275 | 9.7 | 14.5 | 0.00 | 0.00 | 0.00 | 61 | 1019.0 |
| 20260502233038 | 11 | 284 | 6.4 | 9.7 | 0.00 | 0.00 | 0.00 | 61 | 1019.0 |
| 20260502232026 | 11 | 287 | 6.4 | 9.7 | 0.00 | 0.00 | 0.00 | 61 | 1019.2 |
| 20260502231018 | 11 | 290 | 6.4 | 11.3 | 0.00 | 0.00 | 0.00 | 61 | 1019.3 |